Terminal Aerodrome Forecast
Issued by NWS

Home | Current Version | Previous Version | Text Only | Print | Product List | Glossary On
Versions: 1 2 3 4 5 6 7 8 9 10 11 12 13 14 15 16 17 18 19 20 21 22 23 24 25 26 27 28 29 30
000
FTUS44 KOUN 201730
TAFCSM
TAF
KCSM 201730Z 2018/2118 18012KT P6SM BKN040
     FM210100 24005KT P6SM SCT250
     FM211100 35007KT P6SM SCT250
      TEMPO 2111/2113 4SM BR
     FM211600 03010KT P6SM SCT040=

USA.gov is the U.S. government's official web portal to all federal, state and local government web resources and services.